Temperature
0 1 1 1 1 1 1 1 1 2 2 3 3 2 3 3 3 3 3 3 3 3 3 3 3 3 3 3 3 3 3 3 3 3 3 4 4 4 4 4 4 4 4 4
0 1 1 1 1 1 1 2 1 2 2 3 3 3 3 3 3 2 3 3 2 2 2 2 2 2 3 3 3 3 3 3 3 3 3 3 3 4 4 4 4 3 3 3
-0 -0 0 1 1 1 1 1 1 2 2 2 1 1 2 2 2 2 2 2 2 2 2 2 2 2 2 3 3 3 3 3 3 3 3 3 3 3 3 3 3 3 3 3
-1 -1 1 3 2 1 1 1 1 1 1 1 2 2 3 3 3 2 2 2 2 2 2 2 2 2 2 2 2 2 2 2 2 2 2 2 2 2 2 2 2 2 2 2
-2 -1 -0 2 2 1 1 1 1 1 1 1 1 1 2 3 3 3 2 2 2 2 2 2 1 1 1 2 2 2 2 2 2 2 2 2 2 2 2 2 2 1 1 1
-2 -0 1 3 1 1 1 1 1 0 0 0 0 -0 1 2 2 2 2 2 1 1 1 1 1 1 1 1 1 1 1 1 1 1 1 1 1 1 1 1 1 1 1 1
-2 -2 -0 1 1 1 1 2 1 1 1 1 -0 0 1 1 1 1 1 1 1 1 1 1 1 1 1 0 0 0 0 0 0 0 0 0 0 0 -0 0 0 0 0 0
-3 -2 0 0 -0 0 1 2 1 1 1 1 1 1 1 1 1 1 1 1 1 0 0 0 0 0 0 -0 -0 -0 -0 -0 -0 -0 -1 -1 -0 -1 -1 -1 -1 -1 -0 -0
-1 0 1 1 1 2 2 1 1 1 1 0 -0 -0 -0 0 0 0 0 -0 -0 -0 0 -0 -0 -0 -0 -0 -1 -1 -1 -1 -1 -1 -1 -1 -1 -1 -1 -1 -1 -1 -1 -1
-3 -2 -1 0 1 1 2 1 1 1 0 0 -0 -0 -0 -1 -0 -1 -1 -1 -1 -0 -0 -1 -1 -1 -1 -1 -1 -1 -1 -1 -1 -2 -2 -2 -2 -2 -2 -2 -2 -2 -2 -2
-2 -2 -1 1 1 1 1 1 0 0 -0 -0 -0 -1 -1 -1 -1 -1 -1 -1 -1 -1 -1 -1 -1 -1 -1 -1 -2 -2 -2 -2 -2 -2 -2 -2 -2 -2 -2 -2 -3 -3 -3 -3
-1 -1 -1 0 1 1 0 0 -0 -0 -0 -1 -1 -1 -1 -1 -1 -1 -1 -2 -2 -2 -2 -2 -2 -2 -2 -2 -2 -2 -2 -2 -3 -3 -3 -3 -3 -3 -3 -3 -3 -3 -3 -3
0 0 0 0 0 0 -0 -0 -0 -1 -1 -1 -1 -1 -2 -2 -2 -2 -2 -2 -2 -2 -2 -2 -2 -2 -2 -2 -2 -2 -3 -3 -3 -3 -3 -3 -3 -3 -3 -3 -3 -3 -3 -4
-0 -0 -1 -0 -0 -1 -1 -1 -1 -1 -1 -2 -2 -2 -2 -2 -2 -2 -2 -3 -3 -3 -3 -3 -3 -3 -3 -3 -3 -3 -3 -3 -3 -4 -4 -4 -4 -4 -4 -4 -4 -4 -4 -4
-1 -1 -1 -1 -1 -1 -1 -1 -2 -2 -2 -2 -2 -2 -2 -3 -3 -3 -3 -3 -3 -3 -3 -3 -3 -3 -3 -3 -3 -3 -4 -4 -4 -4 -4 -4 -4 -4 -4 -4 -4 -4 -4 -4
-2 -2 -2 -2 -2 -2 -2 -2 -2 -2 -2 -3 -3 -3 -3 -3 -3 -3 -3 -3 -3 -3 -4 -4 -4 -4 -4 -4 -4 -4 -4 -4 -4 -4 -4 -5 -5 -5 -5 -5 -5 -5 -5 -5
-3 -3 -3 -2 -2 -2 -3 -3 -3 -3 -3 -3 -3 -3 -3 -4 -4 -3 -3 -4 -4 -4 -4 -4 -4 -4 -4 -4 -4 -4 -4 -4 -5 -5 -5 -5 -5 -5 -5 -5 -5 -5 -5 -5
-2 -2 -2 -3 -3 -3 -3 -3 -3 -3 -3 -3 -4 -4 -4 -4 -4 -4 -4 -4 -4 -4 -4 -4 -4 -4 -4 -5 -5 -5 -5 -5 -5 -5 -5 -5 -5 -5 -5 -6 -6 -6 -6 -6
-3 -3 -3 -3 -3 -3 -3 -3 -3 -3 -4 -4 -4 -4 -4 -4 -4 -4 -5 -5 -5 -5 -4 -5 -5 -5 -5 -5 -5 -5 -5 -5 -5 -5 -6 -6 -6 -6 -6 -6 -6 -6 -6 -6
-3 -3 -3 -3 -3 -4 -4 -4 -4 -4 -4 -4 -4 -4 -4 -4 -5 -5 -5 -5 -5 -5 -5 -5 -5 -5 -5 -5 -5 -5 -6 -6 -6 -6 -6 -6 -6 -6 -6 -6 -7 -7 -6 -6
-3 -3 -3 -4 -4 -4 -4 -4 -4 -4 -4 -4 -5 -5 -5 -5 -5 -5 -5 -5 -5 -5 -6 -6 -6 -6 -6 -6 -6 -6 -6 -6 -6 -6 -6 -6 -6 -7 -7 -7 -7 -7 -7 -7
-4 -4 -4 -4 -4 -4 -4 -5 -5 -5 -5 -5 -5 -5 -5 -5 -6 -6 -6 -6 -6 -6 -6 -6 -6 -6 -6 -6 -6 -6 -6 -6 -6 -6 -6 -7 -7 -7 -7 -7 -7 -7 -7 -7
-4 -4 -4 -5 -5 -5 -5 -5 -5 -5 -6 -6 -6 -6 -6 -6 -6 -7 -6 -6 -6 -6 -6 -6 -6 -7 -7 -7 -6 -7 -7 -7 -7 -7 -7 -7 -7 -7 -7 -7 -7 -7 -7 -7
-4 -5 -5 -5 -6 -6 -6 -6 -6 -6 -6 -6 -6 -7 -7 -7 -7 -7 -7 -7 -7 -7 -7 -7 -7 -7 -7 -7 -7 -7 -7 -7 -7 -7 -7 -7 -7 -7 -7 -7 -7 -7 -7 -7
-5 -5 -5 -6 -6 -6 -6 -6 -6 -6 -6 -7 -7 -7 -7 -7 -7 -7 -7 -7 -7 -7 -7 -7 -7 -7 -7 -7 -7 -7 -7 -7 -7 -7 -7 -7 -7 -7 -7 -7 -7 -8 -8 -8
-5 -5 -6 -6 -6 -6 -6 -7 -7 -7 -7 -7 -7 -7 -7 -7 -7 -8 -7 -7 -7 -7 -7 -7 -7 -7 -7 -7 -8 -8 -8 -8 -8 -8 -8 -8 -8 -8 -7 -7 -8 -8 -8 -8
-6 -6 -6 -6 -6 -7 -7 -7 -7 -7 -7 -7 -8 -8 -8 -8 -8 -8 -8 -8 -8 -8 -8 -8 -8 -8 -8 -8 -8 -8 -8 -8 -8 -8 -8 -8 -8 -8 -8 -8 -8 -8 -8 -8
Wind_Speed
6 7 5 8 9 8 10 10 10 10 11 14 10 8 8 8 7 7 7 7 8 8 8 7 6 6 5 4 4 4 4 4 5 5 5 5 5 5 4 4 5 5 5 4
5 5 6 9 11 12 12 10 12 13 15 12 8 5 6 7 7 7 8 8 8 9 8 7 6 6 5 4 4 3 4 4 4 4 4 4 4 4 3 4 4 4 4 5
5 5 5 9 10 11 8 8 9 12 12 8 7 7 7 7 7 8 8 8 8 8 8 7 6 6 5 4 3 3 3 3 3 4 4 4 3 2 3 3 3 4 4 4
2 2 7 7 3 7 8 8 9 8 8 7 9 9 8 6 5 7 8 7 7 7 7 7 5 5 5 4 3 3 3 3 3 3 4 3 3 3 3 3 3 3 4 4
2 4 9 8 3 4 5 7 7 9 10 7 6 5 5 4 4 6 7 7 6 6 6 5 5 4 4 4 3 3 3 3 3 3 3 3 3 3 3 2 2 2 2 2
4 4 7 6 2 1 2 6 5 6 8 6 2 3 6 5 5 7 6 5 5 5 5 4 5 4 3 4 3 4 4 4 3 3 3 3 3 3 2 2 2 2 2 2
6 7 9 6 2 3 3 6 3 4 5 5 5 6 6 6 6 5 5 5 5 4 4 4 4 3 3 4 4 4 4 3 3 3 2 3 2 2 1 1 1 2 2 2
6 6 9 3 4 5 6 3 2 3 3 4 5 5 5 5 5 5 5 5 4 4 4 4 4 3 3 4 5 4 3 3 3 3 2 2 1 1 1 1 1 1 1 2
9 9 4 4 5 4 2 3 3 3 4 3 4 5 5 5 5 4 4 4 4 4 4 5 4 3 4 5 4 4 3 3 3 3 3 2 1 1 1 1 1 1 1 2
6 8 6 5 5 5 4 4 4 4 4 3 4 4 4 4 4 4 4 4 4 4 4 5 5 4 4 4 3 3 3 3 3 3 3 3 2 2 2 1 1 2 2 2
7 7 5 5 5 6 5 4 4 3 3 3 3 4 4 4 4 4 4 4 3 4 4 5 5 5 4 4 3 3 3 3 3 3 3 3 3 3 3 2 2 2 2 2
8 6 5 4 3 3 3 4 4 4 4 3 3 4 4 4 4 3 4 4 4 4 5 5 5 4 4 3 3 2 3 3 3 3 3 3 3 4 5 3 3 3 3 3
7 4 4 5 3 2 3 4 4 4 4 4 3 3 3 3 3 3 4 4 4 5 5 4 4 4 4 3 3 2 2 3 3 3 3 3 2 2 3 4 5 4 3 3
6 3 4 4 5 4 4 4 3 3 3 3 3 2 2 3 3 4 4 4 5 4 4 3 3 4 4 3 3 3 2 3 2 2 2 2 2 2 2 2 3 4 4 4
7 6 6 5 4 3 3 2 2 3 3 3 2 2 3 3 4 5 5 4 4 4 4 3 4 5 4 3 2 2 2 2 2 2 2 2 2 2 1 2 2 2 3 3
6 5 5 5 5 5 3 3 4 4 4 3 3 3 4 4 4 5 4 3 3 4 4 4 4 4 3 2 2 2 2 3 3 2 2 2 2 2 1 1 2 2 2 2
5 6 5 5 6 5 5 5 5 5 4 4 4 4 3 3 4 4 4 4 3 4 4 4 4 3 3 2 1 1 1 2 3 2 2 2 2 2 1 1 1 2 2 2
8 8 6 6 5 5 5 5 4 4 4 5 4 3 3 3 4 5 5 4 4 4 4 4 3 2 2 2 1 1 1 1 1 1 2 2 2 1 1 1 1 2 2 2
4 5 5 5 5 5 4 5 5 4 4 3 3 3 4 4 4 4 4 3 3 4 4 4 4 3 2 2 2 1 1 1 1 1 1 2 2 2 1 1 2 2 2 2
3 3 3 4 3 3 4 4 3 3 3 2 2 3 3 4 3 3 3 3 4 4 4 4 3 2 2 2 2 1 1 1 1 1 1 1 1 1 2 2 2 2 2 2
3 3 3 3 3 3 3 3 3 3 3 2 3 4 4 4 3 2 3 4 4 3 3 4 2 2 3 2 2 1 1 1 1 1 1 1 1 1 2 2 2 2 2 2
3 3 3 3 3 3 3 3 3 3 3 3 3 3 3 3 3 3 4 4 4 4 3 2 2 3 3 3 1 1 1 1 1 1 2 2 2 2 2 2 2 2 2 2
3 3 3 3 3 3 2 2 2 3 3 3 3 3 3 4 3 3 4 3 2 4 3 2 3 4 4 2 1 1 1 1 2 2 2 2 2 2 2 3 2 2 2 2
3 3 3 2 1 1 2 3 3 2 3 3 3 4 3 3 3 3 3 4 4 5 3 3 4 4 3 1 1 1 1 2 2 2 2 2 2 2 2 3 3 3 3 3
3 3 3 2 2 3 3 3 2 2 2 2 3 3 3 3 3 3 3 3 4 4 2 3 4 4 2 1 1 2 2 2 3 3 2 2 2 3 3 3 3 3 3 3
3 3 4 4 4 3 3 2 2 2 2 3 3 3 2 2 2 2 2 2 2 3 2 2 3 3 2 2 2 2 2 3 3 3 3 3 3 3 3 3 3 3 3 3
3 3 2 2 3 3 3 3 3 3 3 3 4 3 2 2 2 1 2 2 2 2 2 2 2 2 2 2 2 3 3 3 3 3 3 3 3 3 3 3 3 3 3 3
Wind_Direction
257 265 251 242 241 225 219 218 224 245 250 265 268 266 272 277 283 294 301 304 305 305 305 298 295 292 287 283 276 267 265 267 266 267 265 260 256 249 240 233 236 234 236 240
277 270 266 265 251 234 235 235 240 257 266 266 277 277 275 276 281 286 290 294 297 301 303 296 288 287 288 289 282 267 259 268 275 275 272 266 255 246 246 242 239 236 234 240
269 301 316 272 238 214 221 222 213 237 252 279 287 279 269 269 269 270 280 287 291 293 294 296 294 289 288 284 286 277 271 279 278 270 272 270 261 248 247 251 244 238 239 241
263 347 252 248 212 201 219 242 227 239 261 261 261 273 271 257 251 271 286 287 289 292 298 303 301 301 300 301 304 301 299 296 295 280 273 276 272 259 256 254 247 245 245 243
187 253 276 287 246 186 210 262 232 239 259 274 294 308 289 268 279 274 279 280 282 288 294 300 305 305 305 308 311 315 305 301 298 284 268 274 271 270 273 266 260 256 258 251
182 221 249 258 253 202 137 274 253 231 251 268 313 297 283 302 305 303 305 302 300 300 304 304 308 316 311 311 310 301 304 305 301 293 272 269 264 266 273 263 259 267 277 265
206 232 262 260 244 118 180 255 278 241 245 234 222 239 279 302 303 304 310 313 318 318 314 308 313 325 322 319 308 306 312 314 309 302 288 271 268 270 272 273 270 269 276 283
186 215 252 228 148 186 229 267 263 261 250 242 250 271 290 297 303 315 322 326 329 328 322 323 327 332 326 316 315 326 329 331 332 330 314 299 287 321 313 268 282 283 300 313
199 220 248 190 203 229 223 248 257 258 263 248 263 277 288 298 310 316 317 318 321 320 323 331 334 334 321 320 330 339 343 339 338 341 339 334 330 336 358 353 288 293 296 300
244 259 254 246 253 262 244 246 263 266 267 245 260 274 287 296 307 314 315 315 320 326 328 328 332 331 320 326 340 349 346 341 348 355 348 352 353 350 344 330 319 309 292 279
249 269 293 280 254 259 264 269 279 283 274 257 254 276 278 288 298 304 309 314 321 319 315 316 326 330 333 339 351 356 349 349 356 359 356 360 359 353 340 321 283 278 276 267
240 243 221 262 280 257 255 267 267 274 285 281 252 260 272 280 290 299 308 316 321 320 318 319 328 330 335 341 352 355 348 351 352 350 352 354 355 358 8 353 350 336 313 303
241 252 227 257 280 262 255 264 267 260 259 275 277 263 266 281 289 297 303 308 306 304 308 315 326 329 331 336 348 349 339 337 339 345 344 344 346 345 350 2 11 12 12 11
247 251 265 262 261 270 267 269 269 273 268 265 269 278 277 287 297 299 296 293 296 302 309 316 326 326 327 333 344 344 336 331 338 336 334 337 337 338 346 349 354 5 15 21
247 232 237 258 270 279 280 286 296 293 294 297 293 294 293 294 293 295 298 302 308 312 314 323 326 321 326 334 342 340 333 331 336 339 340 339 341 348 355 355 360 356 2 8
248 246 246 251 259 266 273 275 274 277 282 285 290 291 288 287 292 298 303 306 307 307 309 310 307 311 320 327 335 338 334 334 342 344 351 353 348 350 354 355 356 352 345 339
232 244 243 251 255 259 258 257 257 266 271 273 277 284 293 299 304 304 305 305 295 292 293 292 296 308 319 321 322 321 329 332 342 355 357 345 339 334 333 337 337 332 325 319
229 235 233 234 242 253 263 266 263 262 264 270 280 287 286 284 284 290 297 305 311 315 305 296 300 315 320 316 314 315 319 319 328 337 340 338 336 337 337 330 322 317 324 330
239 240 245 245 241 238 247 257 262 264 270 273 272 273 274 273 278 287 298 305 303 303 306 310 323 338 317 314 326 318 313 310 320 331 334 326 338 338 329 317 314 315 319 322
254 254 249 251 249 239 245 255 260 267 270 263 265 278 288 289 290 292 295 288 275 273 287 301 314 315 307 306 331 319 282 284 300 315 320 312 311 312 307 305 310 311 308 304
256 263 261 255 257 252 242 241 243 259 271 261 252 261 272 283 284 279 282 291 293 290 297 308 319 307 306 309 326 320 287 280 289 290 288 285 287 290 289 293 299 298 293 290
246 252 257 255 252 263 265 251 241 250 263 266 263 263 270 282 286 284 267 263 278 296 309 294 291 295 306 314 319 318 298 285 281 278 277 274 270 272 275 280 284 287 287 285
242 240 242 245 244 257 284 279 258 248 251 258 260 260 260 262 258 261 282 281 281 294 302 281 290 302 314 329 321 305 297 290 283 275 272 272 267 265 267 269 272 274 276 277
237 235 236 241 231 239 270 278 279 271 261 264 262 258 255 265 272 255 255 283 297 301 297 293 301 307 324 337 311 299 295 291 283 276 272 269 265 263 262 264 270 273 270 269
232 231 226 217 226 242 249 260 280 282 282 282 277 274 262 240 246 267 269 270 284 304 307 304 305 311 323 304 289 283 281 274 275 279 274 274 268 262 260 261 264 269 270 267
231 232 233 231 230 234 235 236 250 262 267 282 290 288 283 269 254 262 271 272 266 291 300 294 292 301 301 291 285 283 281 285 289 285 276 270 266 264 263 263 265 263 263 264
236 237 237 245 244 229 226 230 241 252 252 256 276 281 283 285 277 274 278 286 288 289 288 290 289 287 287 285 284 282 280 279 277 274 272 268 264 264 265 263 262 259 257 260
Height
1507 1503 1503 1501 1500 1501 1502 1499 1499 1488 1484 1473 1471 1471 1469 1467 1465 1463 1460 1457 1454 1450 1446 1443 1439 1436 1434 1433 1432 1431 1431 1430 1429 1429 1428 1427 1427 1426 1427 1427 1427 1427 1427 1427
1506 1500 1500 1498 1493 1494 1493 1491 1489 1484 1478 1468 1468 1467 1465 1463 1462 1459 1456 1454 1451 1447 1443 1439 1436 1433 1431 1429 1428 1427 1427 1426 1425 1424 1424 1423 1422 1422 1422 1422 1422 1422 1422 1422
1507 1503 1498 1493 1483 1484 1484 1481 1481 1479 1471 1466 1466 1463 1461 1459 1458 1455 1453 1450 1447 1444 1440 1436 1433 1430 1428 1426 1425 1424 1423 1422 1421 1421 1420 1419 1418 1417 1417 1417 1417 1417 1417 1418
1510 1506 1499 1477 1474 1474 1476 1473 1472 1469 1465 1463 1462 1459 1457 1455 1454 1452 1449 1447 1444 1440 1436 1434 1431 1428 1426 1424 1422 1421 1419 1419 1418 1417 1416 1415 1414 1414 1413 1413 1413 1413 1413 1413
1511 1507 1493 1476 1471 1472 1474 1470 1465 1465 1462 1460 1459 1457 1453 1451 1450 1448 1446 1443 1441 1438 1435 1432 1429 1426 1424 1422 1420 1418 1417 1416 1415 1414 1413 1412 1411 1410 1410 1410 1410 1410 1410 1409
1508 1501 1490 1471 1468 1467 1470 1469 1461 1460 1458 1458 1458 1459 1452 1448 1447 1445 1442 1440 1438 1435 1432 1430 1427 1424 1422 1419 1417 1416 1414 1413 1412 1411 1410 1409 1408 1408 1407 1407 1407 1407 1407 1406
1504 1500 1484 1469 1467 1467 1473 1465 1458 1456 1455 1455 1455 1453 1450 1446 1444 1442 1440 1438 1435 1433 1430 1428 1425 1423 1420 1418 1416 1414 1412 1411 1409 1408 1407 1407 1406 1405 1405 1404 1404 1404 1403 1403
1498 1496 1481 1464 1465 1466 1462 1457 1456 1454 1453 1452 1450 1448 1446 1444 1442 1440 1437 1435 1433 1430 1428 1426 1424 1421 1419 1417 1414 1412 1410 1408 1407 1406 1405 1404 1403 1402 1402 1402 1401 1401 1400 1400
1479 1471 1462 1460 1458 1457 1457 1455 1454 1452 1451 1449 1447 1445 1444 1442 1440 1438 1436 1434 1431 1429 1426 1425 1423 1420 1417 1415 1413 1411 1409 1407 1405 1404 1403 1402 1401 1400 1399 1399 1399 1398 1397 1397
1472 1462 1458 1457 1455 1455 1454 1453 1451 1450 1449 1447 1445 1443 1441 1440 1438 1436 1434 1432 1429 1427 1425 1423 1422 1420 1417 1415 1412 1410 1407 1406 1404 1402 1401 1400 1399 1398 1398 1397 1396 1395 1395 1394
1465 1458 1455 1452 1452 1451 1451 1450 1448 1447 1446 1445 1443 1441 1439 1437 1435 1434 1432 1430 1428 1426 1424 1422 1420 1418 1416 1414 1411 1408 1406 1404 1403 1402 1400 1398 1398 1397 1396 1395 1395 1395 1394 1393
1458 1453 1453 1451 1450 1449 1448 1447 1446 1444 1442 1441 1440 1438 1437 1435 1433 1432 1430 1428 1426 1424 1422 1420 1418 1416 1414 1412 1410 1408 1405 1404 1402 1401 1399 1398 1397 1396 1395 1395 1394 1394 1393 1392
1451 1449 1449 1448 1447 1447 1446 1444 1443 1441 1440 1439 1437 1436 1435 1433 1431 1430 1428 1426 1424 1422 1420 1418 1416 1415 1413 1411 1409 1407 1405 1404 1402 1401 1399 1398 1397 1395 1394 1394 1393 1393 1392 1391
1447 1447 1446 1444 1444 1443 1442 1441 1440 1439 1437 1436 1435 1433 1432 1430 1429 1427 1425 1424 1422 1420 1418 1416 1414 1413 1411 1409 1408 1406 1405 1403 1402 1400 1399 1398 1397 1395 1394 1393 1392 1391 1391 1390
1443 1443 1442 1441 1440 1440 1439 1438 1437 1435 1434 1433 1432 1430 1429 1427 1426 1424 1423 1421 1420 1418 1416 1414 1412 1411 1410 1408 1407 1405 1403 1402 1401 1400 1399 1397 1396 1395 1394 1392 1391 1390 1389 1389
1438 1438 1438 1437 1436 1436 1435 1434 1433 1432 1431 1430 1429 1427 1426 1425 1423 1422 1420 1418 1417 1415 1413 1412 1410 1409 1408 1406 1405 1404 1402 1401 1400 1399 1398 1397 1395 1394 1393 1392 1391 1390 1389 1389
1434 1433 1433 1433 1432 1432 1431 1431 1430 1429 1428 1427 1426 1425 1423 1422 1420 1419 1417 1416 1414 1413 1411 1410 1408 1407 1406 1405 1403 1402 1401 1400 1399 1398 1397 1396 1395 1393 1392 1391 1390 1389 1389 1389
1429 1429 1429 1429 1428 1428 1428 1427 1426 1425 1425 1424 1423 1421 1420 1418 1417 1415 1414 1413 1411 1410 1409 1408 1406 1405 1404 1402 1401 1400 1399 1398 1398 1397 1396 1394 1393 1392 1391 1390 1389 1389 1388 1388
1424 1424 1425 1425 1425 1424 1424 1423 1423 1422 1421 1420 1419 1418 1417 1416 1414 1413 1412 1410 1408 1407 1406 1405 1404 1402 1401 1400 1399 1398 1397 1396 1396 1395 1394 1393 1392 1391 1390 1389 1388 1387 1387 1386
1421 1421 1421 1421 1421 1421 1420 1420 1419 1418 1418 1417 1416 1415 1414 1413 1412 1410 1409 1408 1406 1405 1404 1402 1401 1400 1399 1398 1397 1396 1395 1395 1394 1393 1392 1391 1390 1389 1388 1387 1386 1386 1385 1384
1417 1417 1417 1417 1417 1417 1417 1416 1416 1415 1414 1414 1413 1412 1411 1410 1409 1408 1406 1405 1404 1403 1401 1400 1399 1398 1396 1395 1395 1394 1393 1392 1392 1391 1390 1389 1388 1387 1386 1385 1384 1384 1383 1382
1414 1414 1414 1414 1413 1413 1413 1413 1412 1412 1411 1411 1410 1409 1408 1407 1406 1405 1404 1403 1402 1400 1399 1398 1397 1395 1395 1394 1393 1392 1391 1390 1389 1389 1388 1387 1386 1385 1384 1383 1382 1381 1381 1380
1411 1411 1411 1410 1410 1410 1409 1409 1409 1408 1408 1407 1407 1406 1405 1404 1403 1402 1401 1400 1399 1398 1397 1396 1395 1393 1392 1391 1390 1390 1389 1388 1387 1386 1385 1384 1383 1382 1381 1380 1380 1379 1378 1377
1408 1408 1408 1407 1407 1407 1406 1406 1406 1405 1405 1404 1403 1403 1402 1401 1400 1399 1398 1397 1396 1395 1394 1393 1392 1391 1390 1389 1388 1387 1386 1386 1385 1384 1383 1382 1381 1380 1379 1378 1377 1377 1376 1375
1405 1405 1405 1404 1404 1404 1403 1403 1402 1402 1401 1401 1400 1399 1399 1398 1397 1396 1395 1394 1393 1393 1392 1391 1390 1389 1388 1387 1386 1385 1384 1383 1382 1381 1380 1379 1378 1377 1377 1376 1375 1374 1374 1373
1402 1402 1402 1401 1401 1401 1400 1400 1399 1398 1398 1397 1396 1396 1395 1395 1394 1393 1392 1391 1391 1390 1389 1388 1387 1386 1385 1384 1383 1382 1381 1380 1379 1379 1378 1377 1376 1375 1374 1374 1373 1372 1372 1371
1399 1399 1398 1398 1398 1398 1397 1397 1396 1395 1395 1394 1393 1393 1392 1391 1390 1390 1389 1388 1388 1387 1386 1385 1384 1384 1383 1382 1381 1380 1379 1378 1377 1376 1375 1374 1373 1372 1372 1371 1371 1370 1370 1369